Tracking 18852 objects as of 24-Nov-2017
HD Live streaming from Space Station
objects crossing your sky now

FENGYUN 1C DEB

Track FENGYUN 1C DEB now!
10-day predictions


NORAD ID: 29801
Int'l Code: 1999-025CT
Perigee: 711.0 km
Apogee: 863.1 km
Inclination: 98.9 °
Period: 100.4 minutes
Semi major axis: 7158 km
RCS: 0.105 m2 (medium)
Launch date: May 10, 1999
Source: People's Republic of China (PRC)
Launch site: Taiyaun Space Center, China (TSC)

Note: This is SATELLITE DEBRIS
aabbcc
Your satellite tracking list
Your tracking list is empty




NASA's NSSDC Master Catalog

Two Line Element Set (TLE):
1 29801U 99025CT  17327.37810021  .00000084  00000-0  45101-4 0  9994
2 29801  98.8542  97.5718 0106226 250.2159 173.4169 14.33552027567939
Source of the keplerian elements: AFSPC